TimeCST,TemperatureF,Dew PointF,Humidity,Sea Level PressureIn,VisibilityMPH,Wind Direction,Wind SpeedMPH,Gust SpeedMPH,PrecipitationIn,Events,Conditions,WindDirDegrees,DateUTC
12:15 AM,25.2,11.3,56,30.24,10.0,WNW,12.7,-,N/A,,Clear,290,2013-12-06 06:15:00
12:35 AM,24.8,10.4,54,30.23,10.0,West,9.2,-,N/A,,Clear,280,2013-12-06 06:35:00
12:55 AM,25.0,10.8,55,30.23,10.0,NW,6.9,-,N/A,,Scattered Clouds,320,2013-12-06 06:55:00
1:15 AM,24.8,11.1,56,30.23,10.0,NW,8.1,-,N/A,,Scattered Clouds,310,2013-12-06 07:15:00
1:35 AM,24.8,11.3,57,30.25,10.0,WNW,6.9,-,N/A,,Clear,290,2013-12-06 07:35:00
1:55 AM,24.4,11.3,57,30.25,10.0,West,6.9,-,N/A,,Clear,280,2013-12-06 07:55:00
2:15 AM,24.8,11.3,57,30.25,10.0,WNW,6.9,-,N/A,,Mostly Cloudy,290,2013-12-06 08:15:00
2:35 AM,24.6,11.3,57,30.27,10.0,WNW,6.9,-,N/A,,Mostly Cloudy,290,2013-12-06 08:35:00
2:55 AM,24.4,11.5,58,30.27,10.0,West,9.2,-,N/A,,Mostly Cloudy,270,2013-12-06 08:55:00
3:15 AM,24.4,11.3,57,30.28,10.0,West,6.9,-,N/A,,Overcast,280,2013-12-06 09:15:00
3:35 AM,24.3,11.1,57,30.28,10.0,WNW,11.5,-,N/A,,Overcast,290,2013-12-06 09:35:00
4:45 AM,23.0,10.4,59,30.29,10.0,West,8.1,-,N/A,,Overcast,280,2013-12-06 10:45:00
5:45 AM,23.0,10.4,59,30.30,10.0,WNW,6.9,-,N/A,,Overcast,290,2013-12-06 11:45:00
6:45 AM,23.0,10.4,59,30.32,10.0,West,5.8,-,N/A,,Overcast,270,2013-12-06 12:45:00
7:45 AM,23.0,10.4,59,30.32,10.0,West,9.2,-,N/A,,Overcast,270,2013-12-06 13:45:00
8:45 AM,23.0,12.2,63,30.35,10.0,WNW,10.4,-,N/A,,Overcast,290,2013-12-06 14:45:00
9:45 AM,23.0,12.2,63,30.37,10.0,West,9.2,-,N/A,,Overcast,280,2013-12-06 15:45:00
10:45 AM,23.0,10.4,59,30.38,10.0,West,8.1,-,N/A,,Overcast,280,2013-12-06 16:45:00
11:45 AM,24.8,10.4,54,30.35,10.0,WNW,8.1,-,N/A,,Overcast,300,2013-12-06 17:45:00
12:45 PM,24.8,10.4,54,30.34,10.0,WNW,9.2,-,N/A,,Overcast,300,2013-12-06 18:45:00
1:45 PM,24.8,10.4,54,30.36,10.0,WNW,13.8,-,N/A,,Overcast,300,2013-12-06 19:45:00
2:45 PM,24.8,10.4,54,30.34,10.0,NNW,8.1,-,N/A,,Overcast,330,2013-12-06 20:45:00
3:45 PM,23.0,10.4,59,30.35,20.0,WNW,5.8,-,N/A,,Mostly Cloudy,300,2013-12-06 21:45:00
4:45 PM,21.2,8.6,58,30.37,20.0,WNW,8.1,-,N/A,,Scattered Clouds,300,2013-12-06 22:45:00
5:45 PM,19.4,8.6,63,30.41,10.0,WNW,6.9,-,N/A,,Scattered Clouds,290,2013-12-06 23:45:00
6:45 PM,19.4,6.8,58,30.41,10.0,WNW,11.5,-,N/A,,Partly Cloudy,290,2013-12-07 00:45:00
7:45 PM,19.4,6.8,58,30.44,10.0,WNW,10.4,-,N/A,,Partly Cloudy,300,2013-12-07 01:45:00
8:15 PM,19.2,7.2,59,30.45,10.0,WNW,10.4,-,N/A,,Clear,300,2013-12-07 02:15:00
8:35 PM,19.2,7.3,60,30.46,10.0,WNW,9.2,-,N/A,,Clear,290,2013-12-07 02:35:00
8:45 PM,19.4,6.8,58,30.47,10.0,WNW,8.1,-,N/A,,Partly Cloudy,290,2013-12-07 02:45:00
8:55 PM,18.5,7.2,61,30.47,10.0,WNW,10.4,-,N/A,,Clear,290,2013-12-07 02:55:00
9:15 PM,18.5,7.0,61,30.47,10.0,West,9.2,-,N/A,,Clear,280,2013-12-07 03:15:00
9:35 PM,18.3,6.8,61,30.48,10.0,WNW,6.9,-,N/A,,Clear,290,2013-12-07 03:35:00
9:45 PM,17.6,6.8,63,30.48,10.0,West,13.8,-,N/A,,Partly Cloudy,280,2013-12-07 03:45:00
9:55 PM,18.3,6.1,59,30.48,10.0,West,8.1,-,N/A,,Clear,280,2013-12-07 03:55:00
10:15 PM,17.6,5.9,60,30.48,10.0,WNW,10.4,-,N/A,,Clear,290,2013-12-07 04:15:00
10:35 PM,18.0,5.4,58,30.49,10.0,WNW,9.2,-,N/A,,Clear,290,2013-12-07 04:35:00
10:55 PM,17.6,6.1,61,30.50,10.0,WNW,8.1,-,N/A,,Clear,290,2013-12-07 04:55:00
11:15 PM,17.6,5.7,60,30.51,10.0,WNW,9.2,16.1,N/A,,Clear,290,2013-12-07 05:15:00
11:35 PM,17.2,5.0,59,30.51,10.0,WNW,9.2,-,N/A,,Clear,290,2013-12-07 05:35:00
11:55 PM,16.7,4.1,58,30.52,10.0,WNW,12.7,-,N/A,,Clear,290,2013-12-07 05:55:00